Regional Weather Roundup
Issued by NWS

Home | Current Version | Previous Version | Graphics & Text | Print | Product List | Glossary On
Versions: 1 2 3 4 5 6 7 8 9 10 11 12 13 14 15 16 17 18 19 20 21 22 23 24 25 26 27 28 29 30 31 32 33 34 35 36 37 38 39 40 41 42 43 44 45 46 47 48 49
000
ASUS43 KDMX 172107
RWRIA

WEATHER ROUNDUP FOR IOWA
NATIONAL WEATHER SERVICE DES MOINES IA
400 PM CDT WED SEP 17 2014

NOTE: "FAIR" INDICATES FEW OR NO CLOUDS BELOW 12,000 FEET WITH NO
SIGNIFICANT WEATHER AND/OR OBSTRUCTIONS TO VISIBILITY.

* - THESE STATIONS ARE NOT NWS STATIONS...THUS NOT UNDER NWS
QUALITY CONTROL.  THEY ALSO DO NOT REPORT WEATHER SUCH
AS PRECIPITATION OR FOG.

IAZ001>003-012>014-020>022-031>034-043>046-172200-
   NORTHWEST IOWA

CITY           SKY/WX    TMP DP  RH WIND       PRES   REMARKS
CARROLL *      MOSUNNY   75  55  50 SE5       29.92R
CHEROKEE *     PTSUNNY   77  55  47 SE5       29.92R
DENISON *      PTSUNNY   75  57  53 E3        29.90S
LE MARS *      SUNNY     77  57  50 SW5       29.91S
ORANGE CITY *  MOSUNNY   77  55  47 S3        29.92S
SHELDON *      PTSUNNY   75  59  57 S6        29.91S
SIOUX CITY     SUNNY     81  56  42 E3        29.89F HX  81
SPENCER        SUNNY     73  56  54 S5        29.93S
STORM LAKE *   SUNNY     75  59  57 CALM      29.93S
$$

IAZ055>058-069>071-079>083-090>094-172200-
   SOUTHWEST IOWA

CITY           SKY/WX    TMP DP  RH WIND       PRES   REMARKS
ATLANTIC *     MOSUNNY   77  59  53 CALM      29.90F
AUDUBON *      SUNNY     77  54  44 E3        29.93S
CLARINDA *     SUNNY     79  63  57 VRB3      29.91F HX  80
COUNCIL BLFS * SUNNY     79  64  61 SE7       29.89F HX  81
CRESTON *      MOSUNNY   75  59  57 VRB5G12   29.92S
HARLAN  *      MOSUNNY   77  59  53 E6        29.94F
LAMONI         SUNNY     75  58  55 CALM      29.92F
SHENANDOAH *   SUNNY     79  63  57 E7        29.90F HX  80
$$

IAZ047>049-059>061-072>074-084-172200-
   CENTRAL IOWA

CITY           SKY/WX    TMP DP  RH WIND       PRES   REMARKS
AMES           MOSUNNY   74  56  53 SE6       29.93F
ANKENY *       PTSUNNY   73  57  56 E6        29.93S
CHARITON *     MOSUNNY   73  57  56 VRB7      29.92F
DES MOINES     PTSUNNY   75  57  53 SE7       29.92F
GRINNELL*      SUNNY     73  55  53 E5        29.94F
KNOXVILLE *    MOSUNNY   72  57  60 SE7       29.92S
MARSHALLTOWN   MOSUNNY   72  54  53 E5        29.94F
PELLA *        MOSUNNY   77  57  50 NE3       29.94S
PERRY *        PTSUNNY   75  55  50 E7        29.92S
$$

IAZ004>006-015-016-023>025-035-036-172200-
   NORTH CENTRAL IOWA

CITY           SKY/WX    TMP DP  RH WIND       PRES   REMARKS
ALGONA *       MOSUNNY   75  54  46 CALM      29.93F
CLARION *        N/A     75  52  43 VRB7      29.94S
ESTHERVILLE    MOSUNNY   74  54  49 CALM      29.93S
FORT DODGE *   MOSUNNY   73  54  49 S3        29.93F
MASON CITY     PTSUNNY   74  52  46 VRB5      29.96S
FOREST CITY *  PTSUNNY   72  52  49 CALM      29.94F
IOWA FALLS *     N/A     73  48  40 E3        29.95S
$$

IAZ007>011-017>019-026>030-037>042-050>054-066-172200-
   NORTHEAST IOWA

CITY           SKY/WX    TMP DP  RH WIND       PRES   REMARKS
CEDAR RAPIDS   MOSUNNY   70  56  61 SE6       29.95F
CHARLES CITY * SUNNY     72  50  46 CALM      29.96S
CLINTON *      SUNNY     70  52  52 CALM      30.00S
DECORAH *      SUNNY     70  50  49 CALM      29.95F
DUBUQUE        SUNNY     68  52  56 S8        29.98F
MONTICELLO *   MOSUNNY   70  50  49 VRB5      29.96F
OELWEIN *      SUNNY     72  48  43 VRB3      29.96F
WATERLOO       SUNNY     72  49  44 CALM      29.94F
$$

IAZ064-065-067-068-078-172200-
   EAST CENTRAL IOWA

CITY           SKY/WX    TMP DP  RH WIND       PRES   REMARKS
DAVENPORT      SUNNY     69  50  50 CALM      29.98S
IOWA CITY      SUNNY     68  56  65 S5        29.96F
MT. PLEASANT * PTSUNNY   73  52  46 E6        29.95F
MUSCATINE *    MOSUNNY   70  52  52 VRB5      29.96F
QUAD CITIES    SUNNY     69  50  50 VRB3      29.96F
$$

IAZ062-063-075>077-085>089-095>099-172200-
   SOUTHEAST IOWA

CITY           SKY/WX    TMP DP  RH WIND       PRES   REMARKS
BURLINGTON     MOSUNNY   68  55  63 S5        29.96F
FAIRFIELD *    PTSUNNY   72  55  56 SE8       29.95F
FORT MADISON * SUNNY     70  55  60 CALM      29.96F
KEOKUK *       MOSUNNY   68  55  64 VRB5      29.95S
OSKALOOSA *    CLOUDY    72  57  60 SE6       29.94F
CENTERVILLE *  MOSUNNY   72  63  73 E7        29.95S
OTTUMWA        CLOUDY    71  56  58 SE7       29.94F
WASHINGTON *   MOSUNNY   70  55  60 S6        29.96F
$$

ABBREVIATIONS USED IN REMARKS
   TC - TEMPERATURES IN CELSIUS
  WCI - WIND CHILL INDEX
   HX - HEAT INDEX
  VSB - VISIBILITY
$$



USA.gov is the U.S. government's official web portal to all federal, state and local government web resources and services.